When you browse on this site, cookies collect data to enhance your experience and personalize the content and advertising you see.
Visit our Privacy Policy to learn more. By continuing to use the site, you agree to this use of cookies and data.
  • In Netherlands
  • List of Countries
  • For 7 days
  • Water Temperature
  • Satellite Maps
  • Weather Map
  • Weather Widgets
  • user-avatar
    Login

    Hourly Weather Brisbane

    Today, 18 January, Friday

    Time Temperature Precipitation Wind Pressure Humidity
    00:00 +23°C° 0 mm 2 mps 759 mmHg 79%
    01:00 +23°C° 0 mm 2 mps 759 mmHg 82%
    02:00 +23°C° 0 mm 2 mps 759 mmHg 82%
    03:00 +23°C° 0 mm 1 mps 759 mmHg 83%
    04:00 +23°C° 0 mm 1 mps 759 mmHg 81%
    05:00 +24°C° 0 mm 1 mps 760 mmHg 78%
    06:00 +25°C° 0 mm 1 mps 760 mmHg 75%
    07:00 +25°C° 0 mm 1 mps 760 mmHg 72%
    08:00 +27°C° 0 mm 1 mps 760 mmHg 64%
    09:00 +29°C° 0 mm 2 mps 760 mmHg 57%
    10:00 +31°C° 0 mm 2 mps 761 mmHg 50%
    11:00 +33°C° 0 mm 3 mps 760 mmHg 47%
    12:00 +34°C° 0 mm 4 mps 760 mmHg 44%
    13:00 +35°C° 0 mm 4 mps 759 mmHg 41%
    14:00 +34°C° 0 mm 4 mps 759 mmHg 44%
    15:00 +34°C° 0 mm 4 mps 759 mmHg 46%
    16:00 +33°C° 0 mm 3 mps 758 mmHg 47%
    17:00 +30°C° 0 mm 3 mps 759 mmHg 53%
    18:00 +29°C° 0 mm 3 mps 759 mmHg 60%
    19:00 +27°C° 0 mm 3 mps 760 mmHg 66%
    20:00 +26°C° 0 mm 3 mps 760 mmHg 70%
    21:00 +25°C° 0 mm 3 mps 760 mmHg 74%
    22:00 +25°C° 0 mm 3 mps 761 mmHg 78%
    23:00 +24°C° 0 mm 2 mps 761 mmHg 80%

    Tomorrow, 19 January, Saturday

    Time Temperature Precipitation Wind Pressure Humidity
    00:00 +24°C° 0 mm 2 mps 761 mmHg 82%
    01:00 +24°C° 0 mm 2 mps 761 mmHg 84%
    02:00 +23°C° 0 mm 2 mps 761 mmHg 86%
    03:00 +23°C° 0 mm 1 mps 760 mmHg 87%
    04:00 +22°C° 0 mm 1 mps 760 mmHg 89%
    05:00 +23°C° 0 mm 1 mps 761 mmHg 85%
    06:00 +24°C° 0 mm 1 mps 761 mmHg 81%
    07:00 +25°C° 0 mm 1 mps 762 mmHg 78%
    08:00 +27°C° 0 mm 1 mps 761 mmHg 67%
    09:00 +30°C° 0 mm 1 mps 761 mmHg 57%
    10:00 +32°C° 0 mm 1 mps 761 mmHg 46%
    11:00 +34°C° 0 mm 2 mps 760 mmHg 44%
    12:00 +35°C° 0 mm 3 mps 760 mmHg 41%
    13:00 +35°C° 0 mm 3 mps 760 mmHg 39%
    14:00 +35°C° 0 mm 4 mps 759 mmHg 42%
    15:00 +34°C° 0 mm 4 mps 759 mmHg 45%
    16:00 +33°C° 0 mm 4 mps 758 mmHg 49%
    17:00 +32°C° 0 mm 4 mps 759 mmHg 56%
    18:00 +29°C° 0 mm 3 mps 759 mmHg 64%
    19:00 +27°C° 0 mm 3 mps 760 mmHg 71%
    20:00 +26°C° 0 mm 2 mps 760 mmHg 76%
    21:00 +25°C° 0 mm 2 mps 761 mmHg 81%
    22:00 +24°C° 0 mm 1 mps 761 mmHg 86%
    23:00 +24°C° 0 mm 1 mps 761 mmHg 87%

    Day after tomorrow, 20 January, Sunday

    Time Temperature Precipitation Wind Pressure Humidity
    00:00 +24°C° 0 mm 1 mps 761 mmHg 89%
    01:00 +23°C° 0 mm 1 mps 761 mmHg 90%
    02:00 +23°C° 0 mm 1 mps 761 mmHg 90%
    03:00 +23°C° 0 mm 1 mps 761 mmHg 91%
    04:00 +23°C° 0 mm 1 mps 761 mmHg 91%
    05:00 +24°C° 0 mm 1 mps 761 mmHg 85%
    06:00 +25°C° 0 mm 1 mps 762 mmHg 79%
    07:00 +27°C° 0 mm 1 mps 762 mmHg 74%
    08:00 +29°C° 0 mm 2 mps 762 mmHg 65%
    09:00 +31°C° 0 mm 2 mps 762 mmHg 57%
    10:00 +34°C° 0 mm 3 mps 762 mmHg 49%
    11:00 +35°C° 0 mm 3 mps 761 mmHg 47%
    12:00 +35°C° 0 mm 4 mps 761 mmHg 46%
    13:00 +36°C° 0 mm 4 mps 760 mmHg 44%
    14:00 +35°C° 0 mm 4 mps 760 mmHg 47%
    15:00 +35°C° 0 mm 4 mps 760 mmHg 49%
    16:00 +34°C° 0 mm 4 mps 759 mmHg 52%
    17:00 +32°C° 0 mm 4 mps 759 mmHg 59%
    18:00 +29°C° 0 mm 3 mps 760 mmHg 65%
    19:00 +28°C° 0 mm 3 mps 760 mmHg 72%
    20:00 +27°C° 0 mm 2 mps 761 mmHg 74%
    21:00 +27°C° 0 mm 2 mps 761 mmHg 75%
    22:00 +26°C° 0 mm 2 mps 762 mmHg 77%
    23:00 +26°C° 0 mm 1 mps 761 mmHg 78%

    21 January, Monday

    Time Temperature Precipitation Wind Pressure Humidity
    00:00 +26°C° 0 mm 1 mps 761 mmHg 79%
    01:00 +24°C° 0 mm 0 mps 761 mmHg 80%
    02:00 +25°C° 0 mm 1 mps 761 mmHg 82%
    03:00 +25°C° 0 mm 1 mps 761 mmHg 83%
    04:00 +25°C° 0 mm 1 mps 760 mmHg 85%
    05:00 +26°C° 0 mm 1 mps 761 mmHg 80%
    06:00 +27°C° 0 mm 2 mps 761 mmHg 75%
    07:00 +28°C° 0 mm 2 mps 761 mmHg 70%
    08:00 +29°C° 0 mm 2 mps 761 mmHg 63%
    09:00 +31°C° 0 mm 3 mps 761 mmHg 55%
    10:00 +34°C° 0 mm 3 mps 761 mmHg 48%
    11:00 +34°C° 0 mm 4 mps 761 mmHg 46%
    12:00 +35°C° 0 mm 4 mps 760 mmHg 45%
    13:00 +35°C° 0 mm 4 mps 760 mmHg 43%
    14:00 +35°C° 0 mm 4 mps 759 mmHg 45%
    15:00 +34°C° 0 mm 4 mps 759 mmHg 48%
    16:00 +33°C° 0 mm 5 mps 759 mmHg 50%
    17:00 +32°C° 0 mm 4 mps 759 mmHg 57%
    18:00 +29°C° 0 mm 4 mps 760 mmHg 64%
    19:00 +27°C° 0 mm 3 mps 761 mmHg 72%
    20:00 +27°C° 0 mm 3 mps 761 mmHg 74%
    21:00 +26°C° 0 mm 2 mps 762 mmHg 77%
    22:00 +26°C° 0 mm 2 mps 762 mmHg 80%
    23:00 +25°C° 0 mm 2 mps 762 mmHg 81%

    22 January, Tuesday

    Time Temperature Precipitation Wind Pressure Humidity
    00:00 +25°C° 0 mm 2 mps 761 mmHg 82%
    01:00 +25°C° 0 mm 1 mps 761 mmHg 83%
    02:00 +25°C° 0 mm 1 mps 761 mmHg 83%
    03:00 +24°C° 0 mm 1 mps 760 mmHg 84%
    04:00 +24°C° 0 mm 1 mps 760 mmHg 85%
    05:00 +25°C° 0 mm 2 mps 761 mmHg 80%
    06:00 +26°C° 0 mm 2 mps 761 mmHg 75%
    07:00 +27°C° 0 mm 2 mps 761 mmHg 70%
    08:00 +29°C° 0 mm 2 mps 761 mmHg 63%
    09:00 +31°C° 0 mm 3 mps 761 mmHg 55%
    10:00 +33°C° 0 mm 3 mps 761 mmHg 48%
    11:00 +34°C° 0 mm 3 mps 760 mmHg 47%
    12:00 +34°C° 0 mm 4 mps 759 mmHg 45%
    13:00 +35°C° 0 mm 4 mps 759 mmHg 44%
    14:00 +34°C° 0 mm 4 mps 758 mmHg 47%
    15:00 +33°C° 0 mm 4 mps 758 mmHg 49%
    16:00 +33°C° 0 mm 4 mps 758 mmHg 51%
    17:00 +30°C° 0 mm 4 mps 758 mmHg 57%
    18:00 +29°C° 0 mm 3 mps 759 mmHg 64%
    19:00 +27°C° 0 mm 3 mps 759 mmHg 70%
    20:00 +26°C° 0 mm 3 mps 759 mmHg 74%
    21:00 +26°C° 0 mm 2 mps 759 mmHg 78%
    22:00 +25°C° 0 mm 2 mps 759 mmHg 82%
    23:00 +25°C° 0 mm 2 mps 759 mmHg 84%

    23 January, Wednesday

    Time Temperature Precipitation Wind Pressure Humidity
    00:00 +25°C° 0 mm 2 mps 759 mmHg 85%
    01:00 +24°C° 0 mm 1 mps 758 mmHg 87%
    02:00 +24°C° 0 mm 1 mps 758 mmHg 87%
    03:00 +24°C° 0 mm 1 mps 758 mmHg 88%
    04:00 +24°C° 0 mm 1 mps 758 mmHg 89%
    05:00 +25°C° 0 mm 1 mps 758 mmHg 86%
    06:00 +26°C° 0 mm 1 mps 759 mmHg 83%
    07:00 +26°C° 0 mm 2 mps 759 mmHg 80%
    08:00 +29°C° 0 mm 2 mps 759 mmHg 69%
    09:00 +31°C° 0 mm 2 mps 758 mmHg 58%
    10:00 +33°C° 0 mm 1 mps 758 mmHg 48%
    11:00 +36°C° 0 mm 2 mps 757 mmHg 44%
    12:00 +37°C° 0 mm 3 mps 756 mmHg 39%
    13:00 +40°C° 0 mm 4 mps 756 mmHg 35%
    14:00 +37°C° 0 mm 4 mps 755 mmHg 41%
    15:00 +36°C° 0 mm 5 mps 755 mmHg 46%
    16:00 +35°C° 0 mm 5 mps 754 mmHg 52%
    17:00 +33°C° 0 mm 5 mps 754 mmHg 57%
    18:00 +32°C° 0 mm 5 mps 755 mmHg 62%
    19:00 +29°C° 0 mm 5 mps 755 mmHg 68%
    20:00 +28°C° 0 mm 4 mps 756 mmHg 71%
    21:00 +28°C° 0 mm 3 mps 757 mmHg 74%
    22:00 +27°C° 0 mm 2 mps 757 mmHg 76%
    23:00 +27°C° 0 mm 2 mps 757 mmHg 78%
    Show more